EW9302 Weather Reports


time (UTC)temp
F
wind
direction
speed
knots
gust
knots
rain 1hr
in
rain 24hr
in
rain mn
in
humidity
%
barometer
mb
20260507000018 41 9 0.0 0.0 0.01 0.91 0.80 97 1005.3
20260506234513 41 9 0.0 0.0 0.01 0.91 0.80 97 1005.3
20260506233009 41 9 0.9 7.0 0.00 0.90 0.79 97 1005.2
20260506231508 41 9 0.0 0.0 0.00 0.90 0.79 97 1005.4
20260506230007 42 9 0.0 1.7 0.00 0.90 0.79 97 1005.2
20260506224507 42 5 0.0 0.0 0.01 0.90 0.79 97 1005.2
20260506223005 42 5 0.0 0.0 0.01 0.90 0.79 97 1005.0
20260506221504 42 5 0.0 0.0 0.02 0.90 0.79 97 1005.2
20260506220002 42 5 0.0 0.0 0.03 0.91 0.79 97 1005.2
20260506214502 41 5 0.0 0.0 0.03 0.90 0.78 97 1005.1
20260506213102 41 5 0.0 0.0 0.05 0.90 0.78 97 1005.2
20260506211558 41 5 0.0 0.0 0.05 0.89 0.77 97 1005.2
20260506210057 41 5 0.0 0.9 0.05 0.96 0.76 96 1005.1
20260506204557 41 5 0.0 0.0 0.05 0.95 0.75 96 1005.1
20260506203055 42 5 0.0 0.0 0.04 0.93 0.73 96 1004.8
20260506201552 41 5 0.0 0.0 0.04 0.92 0.72 96 1004.5
20260506200052 41 5 0.0 0.0 0.03 0.96 0.71 96 1004.4
20260506194550 41 5 0.0 0.0 0.03 0.95 0.70 96 1004.6
20260506193054 42 5 0.0 0.0 0.03 0.94 0.69 96 1004.6
20260506191546 42 5 0.0 0.9 0.03 0.93 0.68 96 1004.7
20260506190046 41 5 0.0 0.0 0.04 0.93 0.68 96 1004.8
20260506184542 42 5 0.0 0.0 0.05 0.92 0.67 96 1005.2
20260506183041 41 5 0.0 0.0 0.06 0.91 0.66 97 1005.2
20260506181546 41 360 0.0 0.0 0.08 0.90 0.65 97 1005.2
20260506180036 41 360 0.0 0.0 0.10 0.90 0.64 97 1005.6
20260506174537 41 360 0.0 0.0 0.11 0.88 0.62 97 1005.6
20260506173102 41 360 0.0 0.0 0.12 0.86 0.60 97 1005.7
20260506171541 41 360 0.0 8.7 0.11 0.83 0.56 97 1005.5
20260506170048 41 355 0.0 0.0 0.10 0.80 0.54 96 1005.5
20260506164529 41 344 0.0 5.2 0.10 0.77 0.51 96 1005.6
20260506163029 41 13 0.9 3.5 0.08 0.74 0.48 96 1005.8
20260506161526 41 19 0.0 5.2 0.07 0.71 0.45 96 1005.6
20260506160024 41 9 0.0 0.0 0.07 0.70 0.44 95 1005.4
20260506154521 41 9 0.0 0.9 0.05 0.67 0.41 95 1005.5
20260506153023 41 15 0.0 0.9 0.04 0.66 0.40 95 1005.8
20260506151519 42 21 0.0 0.0 0.04 0.64 0.38 95 1006.1
20260506150018 41 24 0.0 0.0 0.05 0.63 0.37 94 1005.9
20260506144515 41 19 0.0 0.0 0.06 0.62 0.36 94 1005.8
20260506143022 41 5 0.0 0.9 0.06 0.61 0.35 95 1005.9
20260506141512 41 360 0.0 0.0 0.07 0.60 0.34 95 1005.9
20260506140111 41 360 0.0 0.0 0.06 0.57 0.32 94 1006.3
20260506134505 41 360 0.0 0.0 0.06 0.56 0.30 95 1006.1
20260506133004 42 360 0.0 0.0 0.08 0.55 0.28 95 1006.4
20260506131507 42 360 0.0 0.0 0.09 0.53 0.27 95 1006.2
20260506130002 42 360 0.0 0.0 0.09 0.52 0.26 95 1006.4
20260506124559 42 360 0.0 0.0 0.08 0.50 0.24 94 1006.6
20260506123055 43 360 0.0 0.0 0.05 0.47 0.21 94 1007.1
20260506121553 43 360 0.0 0.0 0.04 0.45 0.19 94 1007.1
20260506120052 43 360 0.0 0.0 0.02 0.43 0.17 94 1006.6
20260506114551 43 360 0.0 0.0 0.02 0.42 0.16 94 1006.3
20260506113048 44 5 0.0 0.0 0.02 0.42 0.16 95 1006.2
20260506111545 44 9 0.0 0.0 0.01 0.41 0.15 96 1006.2
20260506110046 44 9 0.0 0.0 0.01 0.41 0.15 96 1006.0
20260506104606 45 9 0.0 0.0 0.01 0.40 0.14 96 1006.2
20260506103041 45 9 0.0 0.0 0.01 0.40 0.14 96 1006.4
20260506101541 45 9 0.0 0.0 0.01 0.40 0.14 96 1006.4
20260506100043 45 9 0.0 0.0 0.01 0.40 0.14 96 1006.8
20260506094537 45 9 0.0 0.0 0.01 0.39 0.13 96 1006.5
20260506093035 45 9 0.0 0.0 0.02 0.39 0.13 96 1006.5
20260506091532 45 9 0.0 0.0 0.03 0.39 0.13 96 1006.8
20260506090041 45 9 0.0 0.0 0.03 0.39 0.13 96 1007.2
20260506084533 46 9 0.0 0.0 0.02 0.38 0.12 96 1006.8
20260506083101 46 9 0.0 0.0 0.01 0.37 0.11 96 1007.2
20260506081601 46 9 0.0 0.0 0.00 0.36 0.10 96 1006.6
20260506073050 46 9 0.0 0.0 0.02 0.36 0.10 95 1006.2
20260506071547 47 360 0.0 0.0 0.03 0.36 0.10 95 1006.1
20260506061540 49 274 0.0 0.0 0.05 0.33 0.07 95 1006.6
20260506044611 50 274 0.0 0.0 0.04 0.24 0.24 93 1006.3
20260506043027 50 274 0.0 0.0 0.07 0.24 0.24 93 1006.3
20260506041525 50 274 0.0 0.0 0.06 0.23 0.23 92 1006.0
20260506040038 51 274 0.0 0.0 0.05 0.22 0.22 89 1005.9
20260506034520 52 274 0.0 0.0 0.04 0.20 0.20 88 1005.8
20260506033020 52 274 0.0 0.0 0.01 0.17 0.17 86 1005.5
20260506031516 53 274 0.0 0.0 0.02 0.17 0.17 85 1005.2
20260506030019 53 274 0.0 4.3 0.02 0.17 0.17 85 1005.1
20260506024524 55 278 0.0 10.4 0.01 0.16 0.16 87 1005.2
20260506023012 56 303 0.0 0.0 0.01 0.16 0.16 91 1004.9
20260506021514 57 224 0.0 0.0 0.00 0.15 0.15 89 1004.6
20260506020004 57 224 0.0 0.0 0.00 0.15 0.15 89 1003.8
20260506014511 57 224 0.0 0.0 0.00 0.15 0.15 90 1003.8
20260506013004 57 224 0.0 0.9 0.00 0.15 0.15 90 1003.7
20260506011508 57 224 0.0 0.0 0.00 0.15 0.15 90 1003.5
20260506010000 57 224 0.0 0.0 0.00 0.15 0.15 91 1003.2
20260506004604 56 224 0.0 6.1 0.00 0.15 0.15 92 1003.2
20260506003117 56 224 0.0 0.9 0.00 0.15 0.15 92 1003.1
20260506001623 57 224 0.0 1.7 0.00 0.15 0.15 92 1003.1